When you browse on this site, cookies collect data to enhance your experience and personalize the content and advertising you see.
Visit our Privacy Policy to learn more. By continuing to use the site, you agree to this use of cookies and data.
  • In Italy
  • List of Countries
  • For 7 days
  • Water Temperature
  • Satellite Maps
  • Weather Map
  • Weather Widgets
  • user-avatar
    Login

    Hourly Weather Orsha

    Today, 26 May, Sunday

    Time Temperature Precipitation Wind Pressure Humidity
    00:00 +12°C° 0 mm 3 mps 739 mmHg 90%
    01:00 +11°C° 0 mm 3 mps 739 mmHg 92%
    02:00 +12°C° 0 mm 2 mps 739 mmHg 93%
    03:00 +12°C° 0 mm 2 mps 739 mmHg 93%
    04:00 +12°C° 0 mm 2 mps 739 mmHg 93%
    05:00 +10°C° 0 mm 2 mps 740 mmHg 93%
    06:00 +12°C° 0 mm 3 mps 740 mmHg 89%
    07:00 +13°C° 0 mm 3 mps 740 mmHg 85%
    08:00 +14°C° 0 mm 3 mps 740 mmHg 80%
    09:00 +16°C° 0 mm 3 mps 740 mmHg 76%
    10:00 +15°C° 0 mm 4 mps 740 mmHg 71%
    11:00 +17°C° 0 mm 4 mps 740 mmHg 67%
    12:00 +17°C° 0 mm 4 mps 740 mmHg 65%
    13:00 +18°C° 0 mm 4 mps 740 mmHg 63%
    14:00 +18°C° 0 mm 4 mps 740 mmHg 61%
    15:00 +18°C° 0 mm 4 mps 740 mmHg 63%
    16:00 +18°C° 0 mm 4 mps 740 mmHg 66%
    17:00 +18°C° 0 mm 4 mps 740 mmHg 68%
    18:00 +15°C° 0 mm 4 mps 740 mmHg 73%
    19:00 +14°C° 0 mm 4 mps 740 mmHg 77%
    20:00 +12°C° 0 mm 4 mps 740 mmHg 82%
    21:00 +12°C° 0 mm 4 mps 740 mmHg 84%
    22:00 +11°C° 0 mm 4 mps 740 mmHg 85%
    23:00 +10°C° 0 mm 4 mps 741 mmHg 87%

    Tomorrow, 27 May, Monday

    Time Temperature Precipitation Wind Pressure Humidity
    00:00 +8°C° 0 mm 4 mps 741 mmHg 89%
    01:00 +9°C° 0 mm 3 mps 741 mmHg 91%
    02:00 +8°C° 0 mm 3 mps 741 mmHg 93%
    03:00 +7°C° 0 mm 4 mps 741 mmHg 92%
    04:00 +8°C° 0 mm 4 mps 741 mmHg 91%
    05:00 +8°C° 0 mm 4 mps 741 mmHg 90%
    06:00 +10°C° 0 mm 5 mps 741 mmHg 85%
    07:00 +13°C° 0 mm 5 mps 741 mmHg 81%
    08:00 +14°C° 0 mm 6 mps 741 mmHg 77%
    09:00 +16°C° 0 mm 6 mps 742 mmHg 73%
    10:00 +17°C° 0 mm 7 mps 742 mmHg 69%
    11:00 +20°C° 0 mm 7 mps 742 mmHg 66%
    12:00 +21°C° 0.1 mm 7 mps 742 mmHg 65%
    13:00 +21°C° 0.1 mm 7 mps 741 mmHg 64%
    14:00 +22°C° 0.1 mm 7 mps 741 mmHg 64%
    15:00 +22°C° 0.1 mm 6 mps 741 mmHg 65%
    16:00 +22°C° 0.1 mm 5 mps 741 mmHg 66%
    17:00 +23°C° 0.1 mm 4 mps 741 mmHg 68%
    18:00 +21°C° 0.1 mm 4 mps 741 mmHg 73%
    19:00 +19°C° 0.1 mm 3 mps 741 mmHg 78%
    20:00 +17°C° 0.1 mm 3 mps 741 mmHg 84%
    21:00 +17°C° 0 mm 3 mps 741 mmHg 87%
    22:00 +16°C° 0 mm 3 mps 742 mmHg 90%
    23:00 +14°C° 0 mm 3 mps 742 mmHg 93%

    Day after tomorrow, 28 May, Tuesday

    Time Temperature Precipitation Wind Pressure Humidity
    00:00 +14°C° 0 mm 3 mps 742 mmHg 93%
    01:00 +14°C° 0 mm 3 mps 742 mmHg 94%
    02:00 +14°C° 0 mm 3 mps 742 mmHg 95%
    03:00 +14°C° 0 mm 3 mps 742 mmHg 95%
    04:00 +14°C° 0 mm 3 mps 742 mmHg 95%
    05:00 +14°C° 0 mm 3 mps 742 mmHg 95%
    06:00 +17°C° 0 mm 3 mps 742 mmHg 90%
    07:00 +19°C° 0 mm 4 mps 742 mmHg 86%
    08:00 +21°C° 0 mm 4 mps 742 mmHg 82%
    09:00 +22°C° 0.6 mm 5 mps 742 mmHg 79%
    10:00 +23°C° 0.6 mm 5 mps 742 mmHg 76%
    11:00 +24°C° 0.6 mm 6 mps 742 mmHg 73%
    12:00 +24°C° 0.8 mm 6 mps 741 mmHg 73%
    13:00 +24°C° 0.8 mm 6 mps 741 mmHg 73%
    14:00 +26°C° 0.8 mm 6 mps 741 mmHg 73%
    15:00 +26°C° 0.8 mm 6 mps 741 mmHg 74%
    16:00 +24°C° 0.8 mm 6 mps 740 mmHg 75%
    17:00 +25°C° 0.8 mm 5 mps 740 mmHg 76%
    18:00 +23°C° 0.1 mm 5 mps 740 mmHg 77%
    19:00 +22°C° 0.1 mm 5 mps 741 mmHg 78%
    20:00 +20°C° 0.1 mm 5 mps 741 mmHg 79%
    21:00 +20°C° 0 mm 5 mps 741 mmHg 81%
    22:00 +19°C° 0 mm 5 mps 741 mmHg 82%
    23:00 +19°C° 0 mm 5 mps 741 mmHg 83%

    29 May, Wednesday

    Time Temperature Precipitation Wind Pressure Humidity
    00:00 +17°C° 0 mm 5 mps 741 mmHg 85%
    01:00 +17°C° 0 mm 5 mps 741 mmHg 86%
    02:00 +17°C° 0 mm 5 mps 741 mmHg 88%
    03:00 +17°C° 0 mm 6 mps 741 mmHg 88%
    04:00 +17°C° 0 mm 6 mps 741 mmHg 88%
    05:00 +17°C° 0 mm 6 mps 741 mmHg 88%
    06:00 +19°C° 0 mm 6 mps 741 mmHg 83%
    07:00 +20°C° 0 mm 7 mps 741 mmHg 78%
    08:00 +21°C° 0 mm 8 mps 741 mmHg 73%
    09:00 +22°C° 0 mm 8 mps 741 mmHg 70%
    10:00 +23°C° 0 mm 8 mps 741 mmHg 67%
    11:00 +24°C° 0 mm 8 mps 742 mmHg 64%
    12:00 +22°C° 0.2 mm 8 mps 741 mmHg 68%
    13:00 +21°C° 0.2 mm 7 mps 741 mmHg 73%
    14:00 +20°C° 0.2 mm 7 mps 741 mmHg 78%
    15:00 +21°C° 0 mm 7 mps 741 mmHg 77%
    16:00 +21°C° 0 mm 7 mps 741 mmHg 75%
    17:00 +22°C° 0 mm 7 mps 741 mmHg 73%
    18:00 +21°C° 0.3 mm 6 mps 741 mmHg 76%
    19:00 +20°C° 0.3 mm 5 mps 741 mmHg 79%
    20:00 +20°C° 0.3 mm 5 mps 741 mmHg 82%
    21:00 +19°C° 2 mm 5 mps 741 mmHg 85%
    22:00 +19°C° 2 mm 5 mps 742 mmHg 88%
    23:00 +17°C° 2 mm 5 mps 742 mmHg 92%

    30 May, Thursday

    Time Temperature Precipitation Wind Pressure Humidity
    00:00 +18°C° 0.1 mm 4 mps 742 mmHg 93%
    01:00 +18°C° 0.1 mm 4 mps 742 mmHg 94%
    02:00 +17°C° 0.1 mm 3 mps 742 mmHg 95%
    03:00 +17°C° 0 mm 3 mps 742 mmHg 96%
    04:00 +17°C° 0 mm 2 mps 743 mmHg 97%
    05:00 +16°C° 0 mm 1 mps 743 mmHg 97%
    06:00 +18°C° 0.3 mm 1 mps 743 mmHg 95%
    07:00 +18°C° 0.3 mm 2 mps 743 mmHg 93%
    08:00 +18°C° 0.3 mm 2 mps 744 mmHg 92%
    09:00 +19°C° 0.3 mm 2 mps 744 mmHg 91%
    10:00 +19°C° 0.3 mm 3 mps 744 mmHg 90%
    11:00 +19°C° 0.3 mm 3 mps 744 mmHg 89%
    12:00 +19°C° 0.2 mm 4 mps 744 mmHg 89%
    13:00 +19°C° 0.2 mm 4 mps 745 mmHg 89%
    14:00 +18°C° 0.2 mm 4 mps 745 mmHg 89%
    15:00 +18°C° 0 mm 4 mps 745 mmHg 88%
    16:00 +18°C° 0 mm 4 mps 745 mmHg 88%
    17:00 +18°C° 0 mm 4 mps 745 mmHg 87%
    18:00 +17°C° 0 mm 4 mps 745 mmHg 88%
    19:00 +15°C° 0 mm 4 mps 746 mmHg 89%
    20:00 +15°C° 0 mm 4 mps 746 mmHg 90%
    21:00 +14°C° 0 mm 4 mps 746 mmHg 90%
    22:00 +13°C° 0 mm 4 mps 746 mmHg 91%
    23:00 +12°C° 0 mm 4 mps 746 mmHg 92%

    31 May, Friday

    Time Temperature Precipitation Wind Pressure Humidity
    00:00 +12°C° 0 mm 4 mps 747 mmHg 90%
    01:00 +11°C° 0 mm 4 mps 747 mmHg 88%
    02:00 +11°C° 0 mm 4 mps 747 mmHg 86%
    03:00 +10°C° 0 mm 4 mps 747 mmHg 86%
    04:00 +10°C° 0 mm 4 mps 747 mmHg 86%
    05:00 +10°C° 0 mm 4 mps 747 mmHg 86%
    06:00 +11°C° 0 mm 4 mps 747 mmHg 81%
    07:00 +12°C° 0 mm 4 mps 748 mmHg 77%
    08:00 +13°C° 0 mm 4 mps 748 mmHg 73%
    09:00 +14°C° 0 mm 3 mps 748 mmHg 69%
    10:00 +17°C° 0 mm 3 mps 748 mmHg 65%
    11:00 +18°C° 0 mm 3 mps 747 mmHg 61%
    12:00 +18°C° 0 mm 3 mps 747 mmHg 59%
    13:00 +18°C° 0 mm 3 mps 747 mmHg 57%
    14:00 +19°C° 0 mm 3 mps 747 mmHg 56%
    15:00 +19°C° 0 mm 3 mps 747 mmHg 57%
    16:00 +19°C° 0 mm 2 mps 747 mmHg 58%
    17:00 +19°C° 0 mm 2 mps 747 mmHg 59%
    18:00 +18°C° 0 mm 2 mps 747 mmHg 64%
    19:00 +16°C° 0 mm 3 mps 747 mmHg 69%
    20:00 +14°C° 0 mm 3 mps 747 mmHg 74%
    21:00 +12°C° 0 mm 4 mps 748 mmHg 75%
    22:00 +9°C° 0 mm 5 mps 748 mmHg 76%
    23:00 +8°C° 0 mm 6 mps 749 mmHg 77%
    Show more